This is the latest recevied weather packets stored in our database for station/object N5SRF. If no packets are shown the sender has not sent any weather packets the latest 1 day(s).
| Time | Temp. | Humidity | Pressure | Rain* | Wind** | Luminosity | Snow |
|---|---|---|---|---|---|---|---|
| 1778035331 | 24.44° C | 94% | 1012.6 hPa | 0 mm | - | 0 W/m² | - |
| 1778034725 | 24.44° C | 94% | 1012.5 hPa | 0 mm | - | 0 W/m² | - |
| 1778034422 | 24.44° C | 94% | 1012.2 hPa | 0 mm | - | 0 W/m² | - |
| 1778034119 | 24.44° C | 94% | 1012.1 hPa | 0 mm | - | 0 W/m² | - |
| 1778033817 | 24.44° C | 94% | 1011.9 hPa | 0 mm | - | 0 W/m² | - |
| 1778033514 | 24.44° C | 94% | 1011.9 hPa | 0 mm | - | 0 W/m² | - |
| 1778033211 | 24.44° C | 94% | 1011.7 hPa | 0 mm | - | 0 W/m² | - |
| 1778032606 | 24.44° C | 94% | 1011.7 hPa | 0 mm | - | 0 W/m² | - |
| 1778032303 | 24.44° C | 94% | 1011.5 hPa | 0 mm | - | 0 W/m² | - |
| 1778032001 | 25° C | 93% | 1011.4 hPa | 0 mm | - | 0 W/m² | - |
| 1778031696 | 25° C | 93% | 1011.4 hPa | 0 mm | - | 0 W/m² | - |
| 1778030787 | 25° C | 92% | 1011.3 hPa | 0 mm | - | 0 W/m² | - |
| 1778030484 | 25° C | 92% | 1011.1 hPa | 0 mm | - | 0 W/m² | - |
| 1778030182 | 25° C | 92% | 1011.1 hPa | 0 mm | - | 0 W/m² | - |
| 1778029571 | 25.56° C | 91% | 1010.9 hPa | 0 mm | - | 1 W/m² | - |
| 1778029263 | 25.56° C | 91% | 1010.9 hPa | 0 mm | - | 2 W/m² | - |
| 1778028960 | 25.56° C | 91% | 1010.7 hPa | 0 mm | - | 5 W/m² | - |
| 1778028656 | 25.56° C | 90% | 1010.8 hPa | 0 mm | - | 9 W/m² | - |
| 1778028353 | 25.56° C | 90% | 1010.9 hPa | 0 mm | - | 11 W/m² | - |
| 1778026834 | 26.67° C | 88% | 1010.8 hPa | 0 mm | - | 37 W/m² | - |
| 1778026531 | 26.67° C | 87% | 1010.7 hPa | 0 mm | - | 32 W/m² | - |
| 1778026228 | 26.67° C | 87% | 1010.7 hPa | 0 mm | - | 39 W/m² | - |
| 1778025016 | 27.22° C | 86% | 1010.8 hPa | 0 mm | - | 30 W/m² | - |
| 1778024108 | 27.78° C | 83% | 1010.6 hPa | 0 mm | - | 91 W/m² | - |
| 1778023200 | 27.78° C | 82% | 1010.6 hPa | 0 mm | - | 88 W/m² | - |
* Rain latest hour (hover to see other rain measurements)
** Current wind speed in m/s (hover to see current wind gust speed)